{"data":{"norad_id":66163,"intl_designator":"2025-240T","name":"STARLINK-35607","alt_names":[],"object_type":"PAYLOAD","status":"ACTIVE","operator":null,"country":"US","launch_date":"2025-10-25","launch_site_code":"AFWTR","launch_vehicle":null,"mission":null,"orbit_class":"UNKNOWN","rcs_meters":null,"size_class":null,"mass_kg":null,"dimensions":null,"purposes":["comms"],"wikipedia_slug":null,"has_3d_model":false,"image_url":null,"decayed_at":null,"tle_current":{"epoch":"2026-09-20T22:36:49.788288Z","epoch_age_seconds":62239,"freshness":"FRESH","line1":"1 66163U 25240T   26263.94224292  .00014057  00000+0  42640-3 0  9993","line2":"2 66163  53.1581 231.5394 0002162  96.2422 263.8827 15.34399070 51946","mean_motion":15.3439907,"eccentricity":0.0002162,"inclination_deg":53.1581,"raan_deg":231.5394,"arg_perigee_deg":96.2422,"mean_anomaly_deg":263.8827,"bstar":0.0004264,"rev_number":5194,"period_min":93.847814962505,"perigee_km":461.22701410695,"apogee_km":464.18499462203,"semimajor_km":6840.8430043645,"source":"CELESTRAK","updated_at":"2026-09-21T09:00:35.815788Z"}}}